{"data":{"norad_id":37189,"intl_designator":"2010-054B","name":"GLOBALSTAR M074","alt_names":[],"object_type":"PAYLOAD","status":"ACTIVE","operator":null,"country":"GLOB","launch_date":"2010-10-19","launch_site_code":"TYMSC","launch_vehicle":null,"mission":null,"orbit_class":"UNKNOWN","rcs_meters":4.8795,"size_class":null,"mass_kg":null,"dimensions":null,"purposes":["comms"],"wikipedia_slug":null,"has_3d_model":false,"image_url":null,"decayed_at":null,"tle_current":{"epoch":"2026-05-25T00:42:29.836800Z","epoch_age_seconds":79481,"freshness":"FRESH","line1":"1 37189U 10054B   26145.02951200 -.00000094  00000+0  56317-4 0  9994","line2":"2 37189  51.9990 178.4350 0000163  93.9134 275.5668 12.62268286720236","mean_motion":12.62268286,"eccentricity":1.63e-5,"inclination_deg":51.999,"raan_deg":178.435,"arg_perigee_deg":93.9134,"mean_anomaly_deg":275.5668,"bstar":5.6317e-5,"rev_number":72023,"period_min":114.0803437725,"perigee_km":1413.4689700538,"apogee_km":1413.7229805488,"semimajor_km":7791.7329753013,"source":"CELESTRAK","updated_at":"2026-05-25T13:38:23.039998Z"}}}